Location: Chuathbaluk
(61.5726°N, 159.2454°W)
Time: 22:34:13
(UTC+00:00)

Max Valier Satellite - Pass Details

Date: 25 January 2021
Orbit: 488 x 504 km, 97.3° (Epoch: 25 February)

Event Time Altitude Azimuth Distance (km) Brightness Sun altitude
Exits shadow 06:06:10 12° 353° (N) 1,582 ? -25.7°
Drops below altitude 10° 06:06:31 10° 352° (N) 1,726 ? -25.7°
Sets 06:08:40 0° 346° (NNW) 2,618 ? -26.0°
